Hourly Weather Dziechciniec

Today, 12 May, Wednesday

Time Temperature Precipitation Wind Pressure Humidity
00:00 +14°C° 0 mm 6 mps 748 mmHg 72%
01:00 +14°C° 0 mm 6 mps 748 mmHg 72%
02:00 +13°C° 0 mm 6 mps 748 mmHg 72%
03:00 +13°C° 0 mm 5 mps 747 mmHg 72%
04:00 +12°C° 0 mm 5 mps 747 mmHg 72%
05:00 +14°C° 0 mm 6 mps 747 mmHg 72%
06:00 +15°C° 0 mm 6 mps 747 mmHg 72%
07:00 +16°C° 0 mm 6 mps 747 mmHg 71%
08:00 +18°C° 0 mm 7 mps 747 mmHg 66%
09:00 +21°C° 0 mm 7 mps 747 mmHg 61%
10:00 +22°C° 0 mm 8 mps 747 mmHg 56%
11:00 +23°C° 0 mm 8 mps 747 mmHg 55%
12:00 +23°C° 0 mm 8 mps 747 mmHg 54%
13:00 +24°C° 0 mm 8 mps 747 mmHg 53%
14:00 +23°C° 0 mm 8 mps 747 mmHg 57%
15:00 +22°C° 0 mm 8 mps 746 mmHg 61%
16:00 +22°C° 0 mm 8 mps 746 mmHg 66%
17:00 +20°C° 0 mm 7 mps 746 mmHg 66%
18:00 +17°C° 0 mm 7 mps 746 mmHg 67%
19:00 +15°C° 0 mm 6 mps 746 mmHg 68%
20:00 +14°C° 0 mm 6 mps 746 mmHg 68%
21:00 +13°C° 0 mm 6 mps 746 mmHg 69%
22:00 +12°C° 0 mm 5 mps 746 mmHg 69%
23:00 +10°C° 0 mm 5 mps 746 mmHg 72%

Tomorrow, 13 May, Thursday

Time Temperature Precipitation Wind Pressure Humidity
00:00 +10°C° 0 mm 4 mps 745 mmHg 75%
01:00 +8°C° 0 mm 4 mps 745 mmHg 78%
02:00 +7°C° 0 mm 4 mps 744 mmHg 81%
03:00 +7°C° 0 mm 4 mps 744 mmHg 84%
04:00 +6°C° 0 mm 4 mps 744 mmHg 86%
05:00 +7°C° 0 mm 4 mps 743 mmHg 81%
06:00 +10°C° 0 mm 4 mps 743 mmHg 75%
07:00 +12°C° 0 mm 5 mps 743 mmHg 70%
08:00 +13°C° 0 mm 5 mps 743 mmHg 65%
09:00 +14°C° 0 mm 5 mps 742 mmHg 61%
10:00 +16°C° 0 mm 5 mps 742 mmHg 56%
11:00 +17°C° 0 mm 5 mps 741 mmHg 54%
12:00 +18°C° 0 mm 4 mps 741 mmHg 52%
13:00 +19°C° 0 mm 4 mps 740 mmHg 51%
14:00 +18°C° 0 mm 4 mps 740 mmHg 56%
15:00 +18°C° 0 mm 4 mps 740 mmHg 62%
16:00 +17°C° 0 mm 4 mps 740 mmHg 68%
17:00 +16°C° 0 mm 3 mps 740 mmHg 74%
18:00 +13°C° 0 mm 3 mps 740 mmHg 79%
19:00 +13°C° 0 mm 2 mps 739 mmHg 85%
20:00 +13°C° 0 mm 2 mps 739 mmHg 87%
21:00 +13°C° 0 mm 2 mps 739 mmHg 89%
22:00 +12°C° 0 mm 2 mps 739 mmHg 91%
23:00 +12°C° 0 mm 2 mps 739 mmHg 92%

Day after tomorrow, 14 May, Friday

Time Temperature Precipitation Wind Pressure Humidity
00:00 +12°C° 0 mm 1 mps 739 mmHg 93%
01:00 +12°C° 0 mm 1 mps 739 mmHg 94%
02:00 +12°C° 0 mm 1 mps 739 mmHg 94%
03:00 +12°C° 0 mm 1 mps 739 mmHg 95%
04:00 +12°C° 0 mm 1 mps 739 mmHg 95%
05:00 +13°C° 0 mm 1 mps 740 mmHg 92%
06:00 +13°C° 0 mm 1 mps 740 mmHg 88%
07:00 +14°C° 0 mm 2 mps 740 mmHg 85%
08:00 +15°C° 0.1 mm 2 mps 741 mmHg 79%
09:00 +16°C° 0.1 mm 2 mps 741 mmHg 73%
10:00 +18°C° 0.1 mm 3 mps 741 mmHg 67%
11:00 +17°C° 0.5 mm 4 mps 741 mmHg 68%
12:00 +16°C° 0.5 mm 5 mps 742 mmHg 69%
13:00 +16°C° 0.5 mm 6 mps 742 mmHg 70%
14:00 +15°C° 0.1 mm 6 mps 743 mmHg 72%
15:00 +14°C° 0.1 mm 5 mps 743 mmHg 73%
16:00 +14°C° 0.1 mm 5 mps 743 mmHg 75%
17:00 +13°C° 0 mm 5 mps 744 mmHg 75%
18:00 +12°C° 0 mm 4 mps 744 mmHg 76%
19:00 +11°C° 0 mm 4 mps 744 mmHg 77%
20:00 +11°C° 0 mm 4 mps 744 mmHg 80%
21:00 +10°C° 0 mm 3 mps 744 mmHg 82%
22:00 +10°C° 0 mm 3 mps 745 mmHg 84%
23:00 +9°C° 0 mm 3 mps 745 mmHg 85%

15 May, Saturday

Time Temperature Precipitation Wind Pressure Humidity
00:00 +9°C° 0 mm 3 mps 745 mmHg 86%
01:00 +8°C° 0 mm 3 mps 745 mmHg 87%
02:00 +8°C° 0 mm 3 mps 745 mmHg 87%
03:00 +9°C° 0 mm 3 mps 745 mmHg 87%
04:00 +9°C° 0 mm 3 mps 745 mmHg 87%
05:00 +9°C° 0 mm 3 mps 746 mmHg 86%
06:00 +9°C° 0 mm 3 mps 746 mmHg 86%
07:00 +10°C° 0 mm 3 mps 746 mmHg 86%
08:00 +11°C° 0 mm 3 mps 746 mmHg 78%
09:00 +13°C° 0 mm 3 mps 746 mmHg 70%
10:00 +15°C° 0 mm 4 mps 746 mmHg 61%
11:00 +17°C° 0 mm 4 mps 746 mmHg 58%
12:00 +17°C° 0 mm 4 mps 746 mmHg 54%
13:00 +18°C° 0 mm 4 mps 746 mmHg 51%
14:00 +18°C° 0 mm 3 mps 746 mmHg 52%
15:00 +18°C° 0 mm 3 mps 746 mmHg 53%
16:00 +18°C° 0 mm 3 mps 746 mmHg 54%
17:00 +17°C° 0 mm 2 mps 746 mmHg 61%
18:00 +15°C° 0 mm 2 mps 746 mmHg 69%
19:00 +14°C° 0 mm 1 mps 746 mmHg 76%
20:00 +13°C° 0 mm 2 mps 746 mmHg 79%
21:00 +12°C° 0 mm 2 mps 746 mmHg 82%
22:00 +10°C° 0 mm 2 mps 747 mmHg 85%
23:00 +10°C° 0 mm 2 mps 747 mmHg 87%

16 May, Sunday

Time Temperature Precipitation Wind Pressure Humidity
00:00 +9°C° 0 mm 2 mps 747 mmHg 88%
01:00 +9°C° 0 mm 2 mps 747 mmHg 89%
02:00 +9°C° 0 mm 2 mps 747 mmHg 89%
03:00 +9°C° 0 mm 2 mps 747 mmHg 89%
04:00 +9°C° 0 mm 2 mps 746 mmHg 90%
05:00 +12°C° 0 mm 2 mps 747 mmHg 84%
06:00 +13°C° 0 mm 2 mps 747 mmHg 78%
07:00 +14°C° 0 mm 3 mps 747 mmHg 72%
08:00 +16°C° 0.1 mm 3 mps 747 mmHg 69%
09:00 +18°C° 0.1 mm 3 mps 747 mmHg 66%
10:00 +19°C° 0.1 mm 4 mps 747 mmHg 64%
11:00 +19°C° 1 mm 4 mps 746 mmHg 65%
12:00 +19°C° 1 mm 4 mps 746 mmHg 67%
13:00 +20°C° 1 mm 4 mps 746 mmHg 68%
14:00 +19°C° 0.6 mm 4 mps 745 mmHg 70%
15:00 +19°C° 0.6 mm 3 mps 745 mmHg 73%
16:00 +18°C° 0.6 mm 3 mps 745 mmHg 76%
17:00 +17°C° 0.5 mm 3 mps 745 mmHg 81%
18:00 +16°C° 0.5 mm 3 mps 745 mmHg 86%
19:00 +13°C° 0.5 mm 3 mps 745 mmHg 92%
20:00 +14°C° 1 mm 2 mps 745 mmHg 94%
21:00 +13°C° 1 mm 2 mps 745 mmHg 95%
22:00 +13°C° 1 mm 2 mps 745 mmHg 97%
23:00 +13°C° 1.6 mm 1 mps 745 mmHg 97%

17 May, Monday

Time Temperature Precipitation Wind Pressure Humidity
00:00 +13°C° 1.6 mm 1 mps 744 mmHg 98%
01:00 +13°C° 1.6 mm 1 mps 744 mmHg 98%
02:00 +13°C° 0.2 mm 2 mps 744 mmHg 98%
03:00 +13°C° 0.2 mm 2 mps 744 mmHg 97%
04:00 +11°C° 0.2 mm 3 mps 744 mmHg 97%
05:00 +12°C° 0 mm 3 mps 744 mmHg 94%
06:00 +12°C° 0 mm 4 mps 745 mmHg 92%
07:00 +13°C° 0 mm 4 mps 745 mmHg 89%
08:00 +14°C° 0 mm 4 mps 745 mmHg 81%
09:00 +15°C° 0 mm 5 mps 745 mmHg 73%
10:00 +16°C° 0 mm 5 mps 745 mmHg 64%
11:00 +17°C° 0 mm 5 mps 745 mmHg 60%
12:00 +19°C° 0 mm 5 mps 745 mmHg 55%
13:00 +19°C° 0 mm 5 mps 745 mmHg 50%
14:00 +19°C° 0 mm 5 mps 745 mmHg 51%
15:00 +19°C° 0 mm 5 mps 745 mmHg 53%
16:00 +19°C° 0 mm 4 mps 745 mmHg 54%
17:00 +17°C° 0 mm 3 mps 745 mmHg 59%
18:00 +16°C° 0 mm 2 mps 745 mmHg 65%
19:00 +15°C° 0 mm 1 mps 745 mmHg 70%
20:00 +14°C° 0 mm 2 mps 746 mmHg 74%
21:00 +13°C° 0 mm 2 mps 746 mmHg 77%
22:00 +12°C° 0 mm 2 mps 746 mmHg 81%
23:00 +11°C° 0 mm 1 mps 746 mmHg 82%
Show more

We Need Your Consent

Meteoprog and our Service Providers may store and access personal data such as cookies, device identifiers or other similar technologies on your device and process such data to personalise content and ads, as well as provide social media features and to analyse the traffic.

  • Store and/or access information on your device

    Cookies, device identifiers or other information can be stored or accessed on your device for the purposes indicated above.

  • Personalised ads and content, ad and content measurement, audience insights, and products development

    Ads and content can be personalised based on a profile. More data can be added to better personalise ads and content. Ad and content performance can be measured. Insights about the audience who saw the ads and content can be derived. Such data can be used to develop or improve user’s experience, systems and software.

By clicking ‘I Agree’ you will allow the use of indicated cookies, device identifiers, web beacons or other similar technologies. Your settings can be changed in the browser on your device.

For certain purposes, legitimate interests may be relied on, rather than consent. You can read more about this in our Privacy and Cookie Policy.